Weather History for Wausau, WI

Change the Weather History Date:

Thursday, October 18, 2012

  Actual Average Record
Temperature  
Mean Temperature 47 °F 45 °F  
Max Temperature 51 °F 55 °F 83 °F (1950)
Min Temperature 42 °F 36 °F 15 °F (1948)
Degree Days  
Heating Degree Days 18 20  
Month to date heating degree days 321 300  
Since 1 July heating degree days 591 593  
Cooling Degree Days 0 0  
Month to date cooling degree days 0 0  
Year to date cooling degree days 725 405  
Moisture  
Dew Point 43 °F    
Average Humidity 84    
Maximum Humidity 96    
Minimum Humidity 71    
Precipitation  
Precipitation 0.42 in 0.10 in 1.25 in (1906)
Month to date precipitation 3.13 1.89  
Year to date precipitation 24.22 28.00  
Snow  
Snow 0.00 in 0.10 in 1.80 in (1925)
Month to date snowfall T 0.6  
Since 1 July snowfall T 0.6  
Since 1 September snowfall T 0.6  
Snow Depth 0.00 in    
Sea Level Pressure  
Sea Level Pressure 29.26 in    
Wind  
Wind Speed 7 mph (SSW)    
Max Wind Speed 14 mph    
Max Gust Speed 16 mph    
Visibility 8 miles    
Events Rain    
T = Trace of Precipitation, MM = Missing Value Source: NWS Daily Summary

Daily Weather History Graph

Daily Weather History Graph

Search for Another Location

Airport:

Trip Planner

Search our weather history database for the weather conditions in past years. The results will help you decide how hot, cold, wet, or windy it might be!

Date:

Astronomy

Oct. 18, 2012 Rise Set
Actual Time 7:18 AM CDT 6:07 PM CDT
Civil Twilight 6:48 AM CDT 6:37 PM CDT
Nautical Twilight 6:14 AM CDT 7:11 PM CDT
Astronomical Twilight 5:40 AM CDT 7:45 PM CDT
Moon 11:09 AM CDT (10/18) 8:32 PM CDT (10/18)
Length of Visible Light 11h 48m
Length of Day
10h 48m
Waxing Crescent, 14% of the Moon is Illuminated
Oct 18
Waxing Crescent
Oct 21
First Quarter
Oct 29
Full
Nov 6
Last Quarter
Nov 13
New

Hourly Weather History & Observations

Time (CDT) Temp. Windchill Dew Point Humidity Pressure Visibility Wind Dir Wind Speed Gust Speed Precip Events Conditions
12:54 AM 51.1 °F - 50.0 °F 96% 29.20 in 5.0 mi Calm Calm - 0.07 in Rain Light Rain
1:54 AM 50.0 °F - 48.9 °F 96% 29.17 in 8.0 mi WSW 5.8 mph - 0.06 in Rain Light Rain
2:14 AM 48.2 °F - 46.4 °F 93% 29.16 in 10.0 mi West 12.7 mph - 0.00 in Rain Light Rain
2:33 AM 48.2 °F - 46.4 °F 93% 29.17 in 7.0 mi WNW 5.8 mph - 0.01 in Rain Light Rain
2:54 AM 48.0 °F - 46.0 °F 93% 29.18 in 5.0 mi West 8.1 mph - 0.05 in Rain Light Rain
3:17 AM 48.2 °F - 46.4 °F 93% 29.18 in 3.0 mi WSW 6.9 mph - 0.06 in Rain Rain
3:30 AM 46.4 °F 42.4 °F 46.4 °F 100% 29.17 in 4.0 mi WSW 8.1 mph - 0.08 in Rain Light Rain
3:54 AM 46.9 °F - 45.0 °F 93% 29.19 in 5.0 mi West 5.8 mph - 0.10 in Rain Light Rain
4:08 AM 46.4 °F 42.9 °F 44.6 °F 93% 29.18 in 6.0 mi WSW 6.9 mph - 0.01 in Rain Light Rain
4:41 AM 46.4 °F 42.9 °F 44.6 °F 93% 29.15 in 10.0 mi West 6.9 mph - 0.01 in   Overcast
4:54 AM 46.9 °F - 45.0 °F 93% 29.17 in 9.0 mi West 5.8 mph - 0.02 in Rain Light Rain
5:54 AM 46.0 °F 42.5 °F 45.0 °F 96% 29.18 in 10.0 mi WSW 6.9 mph - 0.00 in   Overcast
6:54 AM 46.0 °F 41.9 °F 44.1 °F 93% 29.19 in 8.0 mi SW 8.1 mph - N/A   Overcast
7:54 AM 46.0 °F 41.0 °F 44.1 °F 93% 29.21 in 5.0 mi SW 10.4 mph - N/A   Overcast
8:21 AM 44.6 °F 40.7 °F 44.6 °F 100% 29.19 in 1.8 mi SW 6.9 mph - 0.00 in Rain Light Rain
8:31 AM 44.6 °F 41.4 °F 44.6 °F 100% 29.19 in 2.5 mi SW 5.8 mph - 0.00 in Rain Light Rain
8:54 AM 45.0 °F 42.6 °F 43.0 °F 93% 29.21 in 2.0 mi SW 4.6 mph - 0.01 in Rain Light Rain
9:13 AM 44.6 °F 42.2 °F 42.8 °F 93% 29.19 in 3.0 mi SW 4.6 mph - 0.00 in   Overcast
9:23 AM 44.6 °F 41.4 °F 44.6 °F 100% 29.20 in 2.5 mi SSW 5.8 mph - 0.00 in   Overcast
9:33 AM 44.6 °F 40.7 °F 42.8 °F 93% 29.20 in 4.0 mi SSW 6.9 mph - 0.01 in   Overcast
9:54 AM 45.0 °F 40.6 °F 43.0 °F 93% 29.23 in 10.0 mi SSW 8.1 mph - 0.01 in   Overcast
10:11 AM 44.6 °F 41.4 °F 42.8 °F 93% 29.21 in 10.0 mi SSW 5.8 mph - N/A   Overcast
10:33 AM 46.4 °F 42.9 °F 42.8 °F 87% 29.21 in 10.0 mi SSW 6.9 mph - N/A   Overcast
10:49 AM 46.4 °F 42.9 °F 42.8 °F 87% 29.21 in 10.0 mi SSW 6.9 mph - N/A   Overcast
10:54 AM 46.0 °F 41.4 °F 43.0 °F 89% 29.23 in 10.0 mi South 9.2 mph - N/A   Overcast
11:05 AM 46.4 °F 43.5 °F 42.8 °F 87% 29.21 in 10.0 mi South 5.8 mph - N/A   Overcast
11:25 AM 48.2 °F - 42.8 °F 82% 29.21 in 10.0 mi SSW 4.6 mph - N/A   Overcast
11:42 AM 48.2 °F - 42.8 °F 82% 29.21 in 10.0 mi SSE 4.6 mph - N/A   Overcast
11:49 AM 48.2 °F - 42.8 °F 82% 29.21 in 10.0 mi South 4.6 mph - N/A   Overcast
11:54 AM 48.0 °F - 41.0 °F 77% 29.24 in 10.0 mi South 5.8 mph - N/A   Overcast
12:54 PM 48.0 °F - 42.1 °F 80% 29.25 in 10.0 mi South 6.9 mph - N/A   Overcast
1:45 PM 46.4 °F 42.4 °F 39.2 °F 76% 29.24 in 10.0 mi South 8.1 mph - N/A   Overcast
1:54 PM 46.9 °F - 39.9 °F 77% 29.26 in 10.0 mi SSE 8.1 mph - N/A   Overcast
2:54 PM 48.0 °F - 39.9 °F 74% 29.27 in 10.0 mi South 9.2 mph - N/A   Overcast
3:07 PM 46.4 °F 41.9 °F 39.2 °F 76% 29.26 in 10.0 mi SSW 9.2 mph - N/A   Overcast
3:21 PM 46.4 °F 42.4 °F 39.2 °F 76% 29.26 in 10.0 mi South 8.1 mph - N/A   Overcast
3:54 PM 46.9 °F - 39.9 °F 77% 29.30 in 10.0 mi SSE 5.8 mph - N/A   Overcast
4:11 PM 44.6 °F 39.7 °F 41.0 °F 87% 29.28 in 6.0 mi South 9.2 mph - 0.01 in Rain Light Rain
4:19 PM 44.6 °F 40.7 °F 42.8 °F 93% 29.29 in 5.0 mi South 6.9 mph - 0.02 in Rain Light Rain
4:38 PM 44.6 °F 42.2 °F 42.8 °F 93% 29.30 in 10.0 mi South 4.6 mph - 0.02 in Rain Light Rain
4:54 PM 45.0 °F 42.6 °F 42.1 °F 90% 29.33 in 10.0 mi SSE 4.6 mph - 0.02 in   Overcast
5:09 PM 44.6 °F 40.2 °F 42.8 °F 93% 29.31 in 3.0 mi South 8.1 mph - 0.02 in Rain Rain
5:16 PM 44.6 °F 41.4 °F 42.8 °F 93% 29.31 in 2.0 mi SSW 5.8 mph - 0.05 in Rain Rain
5:31 PM 44.6 °F 43.1 °F 41.0 °F 87% 29.32 in 10.0 mi SW 3.5 mph - 0.07 in Rain Light Rain
5:54 PM 44.1 °F 39.5 °F 41.0 °F 89% 29.36 in 9.0 mi South 8.1 mph - 0.07 in Rain Light Rain
6:41 PM 44.6 °F 43.1 °F 42.8 °F 93% 29.34 in 10.0 mi SSE 3.5 mph - 0.00 in Rain Light Rain
6:54 PM 44.1 °F 40.1 °F 42.1 °F 93% 29.37 in 10.0 mi SE 6.9 mph - 0.00 in Rain Light Rain
7:54 PM 44.1 °F 40.1 °F 42.1 °F 93% 29.39 in 10.0 mi ESE 6.9 mph - 0.01 in Rain Light Rain
8:05 PM 44.6 °F 41.4 °F 41.0 °F 87% 29.36 in 10.0 mi ESE 5.8 mph - 0.00 in   Overcast
8:45 PM 42.8 °F 40.1 °F 41.0 °F 93% 29.37 in 10.0 mi SE 4.6 mph - 0.00 in Rain Light Rain
8:54 PM 43.0 °F 39.5 °F 41.0 °F 93% 29.40 in 10.0 mi SSE 5.8 mph - 0.00 in   Overcast
9:54 PM 43.0 °F 38.8 °F 41.0 °F 93% 29.41 in 10.0 mi ESE 6.9 mph - 0.00 in Rain Light Rain
10:26 PM 42.8 °F 41.1 °F 41.0 °F 93% 29.39 in 10.0 mi ESE 3.5 mph - 0.00 in   Overcast
10:54 PM 43.0 °F 41.3 °F 41.0 °F 93% 29.42 in 3.0 mi ESE 3.5 mph - 0.01 in Rain Light Rain
11:54 PM 42.1 °F 40.2 °F 41.0 °F 96% 29.43 in 4.0 mi ESE 3.5 mph - 0.05 in Rain Light Rain